Regional Weather Roundup
Issued by NWS

Home | Current Version | Previous Version | Graphics & Text | Print | Product List | Glossary Off
Versions: 1 2 3 4 5 6 7 8 9 10 11 12 13 14 15 16 17 18 19 20 21 22 23 24 25 26 27 28 29 30 31 32 33 34 35 36 37 38 39 40 41 42 43 44 45 46 47 48 49 50

000
ASUS43 KDMX 250807
RWRIA

WEATHER ROUNDUP FOR IOWA
NATIONAL WEATHER SERVICE DES MOINES IA
300 AM CDT FRI JUL 25 2014

NOTE: "FAIR" INDICATES FEW OR NO CLOUDS BELOW 12,000 FEET WITH NO
SIGNIFICANT WEATHER AND/OR OBSTRUCTIONS TO VISIBILITY.

* - THESE STATIONS ARE NOT NWS STATIONS...THUS NOT UNDER NWS
QUALITY CONTROL.  THEY ALSO DO NOT REPORT WEATHER SUCH
AS PRECIPITATION OR FOG.

IAZ001>003-012>014-020>022-031>034-043>046-250900-
   NORTHWEST IOWA

CITY           SKY/WX    TMP DP  RH WIND       PRES   REMARKS
CARROLL *      CLOUDY    66  61  82 SE15      29.85S
CHEROKEE *     CLOUDY    66  63  88 SE3       29.77S
DENISON *      PTCLDY    70  61  73 SE12G20   29.75S
LE MARS *      CLEAR     70  63  78 SE9       29.73R
ORANGE CITY *  CLEAR     70  61  73 E7        29.78R
SHELDON *      CLEAR     64  63  94 E14G21    29.77F
SIOUX CITY     CLOUDY    77  65  66 SW18G28   29.69F
SPENCER        LGT RAIN  65  62  90 E17       29.85S
STORM LAKE *   CLEAR     64  64 100 SE14G22   29.80F
$$

IAZ055>058-069>071-079>083-090>094-250900-
   SOUTHWEST IOWA

CITY           SKY/WX    TMP DP  RH WIND       PRES   REMARKS
ATLANTIC *     CLOUDY    70  61  73 S17G33    29.82F
AUDUBON *      PTCLDY    72  64  78 SE8       29.86R
CLARINDA *     CLEAR     70  61  73 SW3       29.90R
COUNCIL BLFS *   N/A     73  66  78 SW23G32   29.81F
CRESTON *      CLEAR     68  59  73 S14       29.89F
HARLAN  *      PTCLDY    72  63  73 S36G49    29.71F
LAMONI         CLOUDY    65  59  81 S9        29.91S
RED OAK *      MOCLDY    70  61  73 VRB7G16   29.91R
SHENANDOAH *   PTCLDY    70  61  73 VRB3G16   29.92R
$$

IAZ047>049-059>061-072>074-084-250900-
   CENTRAL IOWA

CITY           SKY/WX    TMP DP  RH WIND       PRES   REMARKS
AMES           TSTM      64  61  90 SE7       29.96F
ANKENY *       MOCLDY    66  61  82 N14       29.96R
CHARITON *     MOCLDY    64  59  82 SE10      29.92S
DES MOINES     CLOUDY    68  59  73 SE8       29.90R
GRINNELL*      MOCLDY    66  57  72 SE8G17    29.98R
KNOXVILLE *    PTCLDY    64  57  77 SE10      29.92R
MARSHALLTOWN   TSTM      63  60  90 S12       30.00R FOG
PELLA *        CLOUDY    66  59  77 SE10G16   29.94S
PERRY *        CLOUDY    64  63  94 E7        29.93R
$$

IAZ004>006-015-016-023>025-035-036-250900-
   NORTH CENTRAL IOWA

CITY           SKY/WX    TMP DP  RH WIND       PRES   REMARKS
ALGONA *       HVY RAIN  64  63  94 NE9G23    29.98R
CLARION *      CLOUDY    66  63  88 SE14G21   29.93F
ESTHERVILLE    CLOUDY    66  63  90 S23G31    29.81F
FORT DODGE *   CLOUDY    64  61  88 SE12G18   29.87F
MASON CITY     HVY RAIN  63  62  97 S23G30    29.93R FOG
FOREST CITY *  RAIN      64  63  94 S16       29.91F
IOWA FALLS *   LGT RAIN  63  61  94 S14       29.97S
$$

IAZ007>011-017>019-026>030-037>042-050>054-066-250900-
   NORTHEAST IOWA

CITY           SKY/WX    TMP DP  RH WIND       PRES   REMARKS
CEDAR RAPIDS   PTCLDY    64  56  75 S8        29.96F
CHARLES CITY * CLOUDY    66  57  72 S10       29.96R
CLINTON *      CLEAR     61  55  82 SE8       30.02F
DECORAH *      CLOUDY    64  59  82 VRB7G13   29.95S
DUBUQUE        CLEAR     61  56  83 SE10      30.00F
MONTICELLO *   CLEAR     61  57  88 SE7       29.98S
OELWEIN *      MOCLDY    63  59  88 SE9       29.98R
WATERLOO       MOCLDY    67  57  70 S12       29.96R
$$

IAZ064-065-067-068-078-250900-
   EAST CENTRAL IOWA

CITY           SKY/WX    TMP DP  RH WIND       PRES   REMARKS
DAVENPORT      CLEAR     62  54  74 SE12      29.99F
IOWA CITY      PTCLDY    62  58  86 SE7       29.98F
MT. PLEASANT * PTCLDY    63  55  77 SE8       29.98F
MUSCATINE *    CLEAR     63  57  82 CALM      29.99F
QUAD CITIES    PTCLDY    61  55  81 SE10      29.99F
$$

IAZ062-063-075>077-085>089-095>099-250900-
   SOUTHEAST IOWA

CITY           SKY/WX    TMP DP  RH WIND       PRES   REMARKS
BURLINGTON     PTCLDY    65  56  72 SE10      29.99F
FAIRFIELD *    CLEAR     64  57  77 SE9       29.97S
FORT MADISON * CLEAR     66  57  72 SE7       30.00F
KEOKUK *       CLEAR     64  55  72 SE9       29.98F
OSKALOOSA *      N/A     63  59  88 SE8       29.95F
CENTERVILLE *  CLEAR     64  57  77 SE8       29.95S
OTTUMWA        MOCLDY    66  56  70 S10       29.95S
WASHINGTON *   CLEAR     63  59  88 SE8       29.98S
$$

ABBREVIATIONS USED IN REMARKS
   TC - TEMPERATURES IN CELSIUS
  WCI - WIND CHILL INDEX
   HX - HEAT INDEX
  VSB - VISIBILITY
$$




USA.gov is the U.S. government's official web portal to all federal, state and local government web resources and services.